| time (UTC) | temp C | wind direction | speed KPH | gust KPH | rain 1hr cm | rain 24hr cm | rain mn cm | humidity % | barometer mb |
| 20260509224241 | 16 | 291 | 1.6 | 3.2 | 0.00 | 0.46 | 0.46 | 64 | 1009.6 |
| 20260509223738 | 16 | 93 | 1.6 | 1.6 | 0.00 | 0.46 | 0.46 | 65 | 1009.5 |
| 20260509223235 | 15 | 283 | 4.8 | 11.3 | 0.00 | 0.46 | 0.46 | 65 | 1009.3 |
| 20260509222732 | 16 | 358 | 1.6 | 3.2 | 0.00 | 0.46 | 0.46 | 64 | 1009.5 |
| 20260509222227 | 16 | 271 | 1.6 | 3.2 | 0.00 | 0.46 | 0.46 | 65 | 1009.4 |
| 20260509221723 | 16 | 253 | 3.2 | 4.8 | 0.00 | 0.46 | 0.46 | 64 | 1009.3 |
| 20260509221219 | 16 | 280 | 1.6 | 1.6 | 0.00 | 0.46 | 0.46 | 64 | 1009.3 |
| 20260509220715 | 16 | 287 | 4.8 | 8.0 | 0.00 | 0.46 | 0.46 | 63 | 1009.5 |
| 20260509220212 | 15 | 232 | 11.3 | 12.9 | 0.00 | 0.46 | 0.46 | 65 | 1009.5 |
| 20260509215707 | 15 | 299 | 6.4 | 9.7 | 0.00 | 0.46 | 0.46 | 66 | 1009.7 |
| 20260509215204 | 15 | 336 | 4.8 | 8.0 | 0.00 | 0.46 | 0.46 | 67 | 1009.7 |
| 20260509214702 | 15 | 246 | 3.2 | 4.8 | 0.00 | 0.46 | 0.46 | 67 | 1009.6 |
| 20260509214159 | 16 | 291 | 8.0 | 9.7 | 0.00 | 0.46 | 0.46 | 64 | 1009.7 |
| 20260509213655 | 16 | 167 | 1.6 | 1.6 | 0.00 | 0.46 | 0.46 | 67 | 1009.6 |
| 20260509213151 | 15 | 310 | 4.8 | 4.8 | 0.00 | 0.46 | 0.46 | 69 | 1009.5 |
| 20260509212648 | 15 | 324 | 4.8 | 4.8 | 0.00 | 0.46 | 0.46 | 67 | 1009.3 |
| 20260509212145 | 16 | 341 | 3.2 | 3.2 | 0.00 | 0.46 | 0.46 | 66 | 1009.4 |
| 20260509211641 | 16 | 292 | 4.8 | 4.8 | 0.00 | 0.46 | 0.46 | 63 | 1009.4 |
| 20260509211138 | 16 | 282 | 12.9 | 16.1 | 0.00 | 0.46 | 0.46 | 63 | 1009.4 |
| 20260509210635 | 16 | 278 | 3.2 | 3.2 | 0.00 | 0.46 | 0.46 | 64 | 1009.4 |
| 20260509210132 | 16 | 202 | 14.5 | 20.9 | 0.00 | 0.46 | 0.46 | 65 | 1009.4 |
| 20260509205627 | 16 | 185 | 9.7 | 14.5 | 0.00 | 0.46 | 0.46 | 64 | 1009.5 |
| 20260509205121 | 16 | 204 | 12.9 | 16.1 | 0.00 | 0.46 | 0.46 | 63 | 1009.5 |
| 20260509204617 | 16 | 297 | 3.2 | 3.2 | 0.00 | 0.46 | 0.46 | 64 | 1009.7 |
| 20260509204114 | 16 | 147 | 6.4 | 9.7 | 0.00 | 0.46 | 0.46 | 65 | 1009.5 |
| 20260509203610 | 15 | 227 | 8.0 | 9.7 | 0.00 | 0.46 | 0.46 | 67 | 1009.6 |
| 20260509203103 | 15 | 52 | 4.8 | 4.8 | 0.00 | 0.46 | 0.46 | 69 | 1009.6 |
| 20260509202557 | 15 | 250 | 3.2 | 3.2 | 0.00 | 0.46 | 0.46 | 70 | 1009.5 |
| 20260509202053 | 15 | 202 | 14.5 | 17.7 | 0.00 | 0.46 | 0.46 | 69 | 1009.5 |
| 20260509201548 | 15 | 297 | 1.6 | 3.2 | 0.00 | 0.46 | 0.46 | 70 | 1009.7 |
| 20260509201046 | 16 | 277 | 4.8 | 4.8 | 0.00 | 0.46 | 0.46 | 69 | 1009.7 |
| 20260509200545 | 15 | 322 | 1.6 | 3.2 | 0.00 | 0.46 | 0.46 | 70 | 1009.7 |
| 20260509200042 | 15 | 238 | 4.8 | 4.8 | 0.00 | 0.46 | 0.46 | 68 | 1009.7 |
| 20260509195537 | 15 | 231 | 11.3 | 16.1 | 0.00 | 0.46 | 0.46 | 69 | 1009.8 |
| 20260509195032 | 15 | 226 | 9.7 | 14.5 | 0.00 | 0.46 | 0.46 | 69 | 1010.1 |
| 20260509194527 | 15 | 253 | 6.4 | 8.0 | 0.00 | 0.46 | 0.46 | 68 | 1010.0 |
| 20260509194025 | 15 | 342 | 3.2 | 8.0 | 0.00 | 0.46 | 0.46 | 68 | 1010.0 |
| 20260509193525 | 15 | 165 | 3.2 | 3.2 | 0.00 | 0.46 | 0.46 | 70 | 1010.1 |
| 20260509193022 | 14 | 342 | 4.8 | 8.0 | 0.00 | 0.46 | 0.46 | 70 | 1010.1 |
| 20260509192518 | 15 | 165 | 6.4 | 9.7 | 0.00 | 0.46 | 0.46 | 72 | 1010.1 |
| 20260509192013 | 14 | 290 | 9.7 | 12.9 | 0.00 | 0.46 | 0.46 | 69 | 1010.0 |
| 20260509191508 | 15 | 142 | 4.8 | 8.0 | 0.00 | 0.46 | 0.46 | 70 | 1010.1 |
| 20260509191004 | 15 | 208 | 12.9 | 17.7 | 0.00 | 0.46 | 0.46 | 68 | 1010.1 |
| 20260509190501 | 15 | 203 | 3.2 | 4.8 | 0.00 | 0.46 | 0.46 | 70 | 1010.1 |
| 20260509185959 | 14 | 272 | 6.4 | 9.7 | 0.00 | 0.46 | 0.46 | 71 | 1010.2 |
| 20260509185456 | 13 | 304 | 1.6 | 1.6 | 0.00 | 0.46 | 0.46 | 74 | 1010.1 |
| 20260509184952 | 13 | 20 | 0.0 | 0.0 | 0.00 | 0.46 | 0.46 | 78 | 1010.1 |
| 20260509184451 | 13 | 350 | 0.0 | 1.6 | 0.00 | 0.46 | 0.46 | 77 | 1010.0 |
| 20260509183947 | 13 | 326 | 3.2 | 3.2 | 0.00 | 0.46 | 0.46 | 77 | 1010.0 |
| 20260509183441 | 13 | 277 | 1.6 | 1.6 | 0.00 | 0.46 | 0.46 | 77 | 1010.1 |
| 20260509182938 | 13 | 259 | 4.8 | 8.0 | 0.00 | 0.46 | 0.46 | 78 | 1009.9 |
| 20260509182434 | 12 | 222 | 6.4 | 11.3 | 0.00 | 0.46 | 0.46 | 78 | 1010.0 |
| 20260509181931 | 12 | 242 | 3.2 | 4.8 | 0.00 | 0.46 | 0.46 | 78 | 1010.1 |
| 20260509181429 | 12 | 192 | 8.0 | 11.3 | 0.00 | 0.46 | 0.46 | 79 | 1010.0 |
| 20260509180926 | 12 | 198 | 8.0 | 11.3 | 0.00 | 0.46 | 0.46 | 78 | 1009.8 |
| 20260509180422 | 12 | 216 | 8.0 | 12.9 | 0.00 | 0.46 | 0.46 | 80 | 1010.1 |
| 20260509175919 | 12 | 281 | 3.2 | 3.2 | 0.00 | 0.46 | 0.46 | 78 | 1010.1 |
| 20260509175415 | 12 | 230 | 4.8 | 4.8 | 0.00 | 0.46 | 0.46 | 79 | 1010.1 |
| 20260509174911 | 12 | 307 | 6.4 | 9.7 | 0.00 | 0.46 | 0.46 | 81 | 1010.1 |
| 20260509174408 | 12 | 225 | 8.0 | 11.3 | 0.00 | 0.46 | 0.46 | 80 | 1010.0 |
| 20260509173903 | 12 | 294 | 6.4 | 8.0 | 0.00 | 0.46 | 0.46 | 81 | 1010.2 |
| 20260509173357 | 11 | 259 | 6.4 | 11.3 | 0.00 | 0.46 | 0.46 | 83 | 1010.0 |
| 20260509172854 | 11 | 282 | 4.8 | 4.8 | 0.00 | 0.46 | 0.46 | 85 | 1010.2 |
| 20260509172351 | 11 | 189 | 6.4 | 8.0 | 0.00 | 0.46 | 0.46 | 84 | 1010.1 |
| 20260509171847 | 11 | 221 | 8.0 | 9.7 | 0.00 | 0.46 | 0.46 | 85 | 1010.2 |
| 20260509171343 | 11 | 238 | 6.4 | 8.0 | 0.00 | 0.46 | 0.46 | 86 | 1010.1 |
| 20260509170840 | 11 | 200 | 4.8 | 4.8 | 0.00 | 0.46 | 0.46 | 85 | 1010.4 |
| 20260509170336 | 11 | 257 | 4.8 | 8.0 | 0.00 | 0.46 | 0.46 | 88 | 1010.2 |
| 20260509165830 | 11 | 201 | 3.2 | 4.8 | 0.00 | 0.46 | 0.46 | 89 | 1010.1 |
| 20260509165325 | 11 | 259 | 3.2 | 4.8 | 0.00 | 0.46 | 0.46 | 89 | 1010.2 |
| 20260509164821 | 10 | 209 | 6.4 | 8.0 | 0.00 | 0.46 | 0.46 | 91 | 1010.2 |
| 20260509164317 | 11 | 227 | 3.2 | 3.2 | 0.00 | 0.46 | 0.46 | 91 | 1010.1 |
| 20260509163814 | 10 | 227 | 1.6 | 3.2 | 0.00 | 0.46 | 0.46 | 93 | 1010.2 |
| 20260509163310 | 10 | 207 | 3.2 | 3.2 | 0.00 | 0.46 | 0.46 | 94 | 1010.2 |
| 20260509162809 | 10 | 220 | 8.0 | 9.7 | 0.00 | 0.46 | 0.46 | 94 | 1010.2 |
| 20260509162306 | 10 | 304 | 3.2 | 4.8 | 0.00 | 0.46 | 0.46 | 94 | 1010.3 |
| 20260509161759 | 10 | 229 | 8.0 | 9.7 | 0.00 | 0.46 | 0.46 | 94 | 1010.4 |
| 20260509161255 | 10 | 200 | 4.8 | 4.8 | 0.00 | 0.46 | 0.46 | 94 | 1010.7 |
| 20260509160751 | 10 | 305 | 4.8 | 8.0 | 0.00 | 0.46 | 0.46 | 94 | 1010.8 |
| 20260509160247 | 10 | 214 | 6.4 | 12.9 | 0.00 | 0.46 | 0.46 | 95 | 1010.6 |
| 20260509155742 | 10 | 245 | 4.8 | 8.0 | 0.18 | 0.46 | 0.46 | 96 | 1010.7 |
| 20260509155239 | 10 | 232 | 6.4 | 8.0 | 0.18 | 0.46 | 0.46 | 98 | 1010.6 |
| 20260509154735 | 10 | 166 | 4.8 | 8.0 | 0.00 | 0.43 | 0.43 | 99 | 1010.7 |
| 20260509154233 | 10 | 197 | 4.8 | 4.8 | 0.00 | 0.43 | 0.43 | 98 | 1010.9 |
| 20260509153730 | 9 | 176 | 3.2 | 3.2 | 0.00 | 0.43 | 0.43 | 98 | 1010.9 |
| 20260509153226 | 9 | 233 | 4.8 | 8.0 | 0.00 | 0.43 | 0.43 | 98 | 1010.8 |
| 20260509152722 | 9 | 251 | 1.6 | 3.2 | 0.00 | 0.43 | 0.43 | 98 | 1010.4 |
| 20260509152219 | 9 | 248 | 3.2 | 3.2 | 0.00 | 0.43 | 0.43 | 98 | 1010.9 |
| 20260509151716 | 10 | 230 | 3.2 | 8.0 | 0.00 | 0.43 | 0.43 | 98 | 1010.6 |
| 20260509151213 | 10 | 7 | 1.6 | 3.2 | 0.00 | 0.43 | 0.43 | 98 | 1010.8 |
| 20260509150710 | 9 | 64 | 1.6 | 1.6 | 0.13 | 0.43 | 0.43 | 98 | 1011.0 |
| 20260509150209 | 10 | 304 | 3.2 | 3.2 | 0.13 | 0.43 | 0.43 | 98 | 1010.8 |
| 20260509145704 | 10 | 206 | 1.6 | 3.2 | 0.13 | 0.43 | 0.43 | 98 | 1010.8 |
| 20260509145200 | 9 | 261 | 4.8 | 4.8 | 0.00 | 0.41 | 0.41 | 98 | 1010.7 |
| 20260509144656 | 10 | 331 | 0.0 | 1.6 | 0.00 | 0.41 | 0.41 | 98 | 1010.8 |
| 20260509144154 | 9 | 266 | 3.2 | 3.2 | 0.00 | 0.41 | 0.41 | 98 | 1010.7 |
| 20260509143651 | 9 | 334 | 3.2 | 4.8 | 0.00 | 0.41 | 0.41 | 98 | 1010.7 |
| 20260509143149 | 9 | 214 | 6.4 | 9.7 | 0.00 | 0.41 | 0.41 | 98 | 1010.6 |
| 20260509142644 | 9 | 214 | 4.8 | 9.7 | 0.18 | 0.41 | 0.41 | 99 | 1010.9 |
| 20260509142141 | 9 | 323 | 3.2 | 3.2 | 0.18 | 0.41 | 0.41 | 99 | 1010.7 |
| 20260509141636 | 9 | 327 | 3.2 | 3.2 | 0.00 | 0.38 | 0.38 | 99 | 1010.8 |
| 20260509141133 | 9 | 313 | 3.2 | 3.2 | 0.00 | 0.38 | 0.38 | 99 | 1010.7 |
| 20260509140630 | 8 | 74 | 0.0 | 0.0 | 0.00 | 0.38 | 0.38 | 99 | 1010.8 |
| 20260509140128 | 9 | 247 | 6.4 | 8.0 | 0.00 | 0.38 | 0.38 | 99 | 1010.7 |
| 20260509135625 | 9 | 230 | 4.8 | 4.8 | 0.00 | 0.38 | 0.38 | 99 | 1010.7 |
| 20260509135123 | 8 | 311 | 3.2 | 3.2 | 0.00 | 0.38 | 0.38 | 99 | 1010.7 |
| 20260509134619 | 8 | 207 | 3.2 | 3.2 | 0.00 | 0.38 | 0.38 | 99 | 1010.7 |
| 20260509134117 | 8 | 288 | 0.0 | 1.6 | 0.00 | 0.38 | 0.38 | 99 | 1010.7 |
| 20260509133614 | 8 | 262 | 1.6 | 3.2 | 0.00 | 0.38 | 0.38 | 99 | 1010.8 |
| 20260509133111 | 8 | 225 | 6.4 | 9.7 | 0.13 | 0.38 | 0.38 | 99 | 1010.7 |
| 20260509132609 | 8 | 210 | 3.2 | 8.0 | 0.13 | 0.38 | 0.38 | 99 | 1010.9 |
| 20260509132107 | 8 | 208 | 3.2 | 4.8 | 0.13 | 0.38 | 0.38 | 99 | 1011.1 |
| 20260509131603 | 8 | 286 | 1.6 | 1.6 | 0.00 | 0.36 | 0.36 | 99 | 1011.0 |
| 20260509131100 | 8 | 138 | 1.6 | 1.6 | 0.18 | 0.36 | 0.36 | 99 | 1011.0 |
| 20260509130556 | 8 | 177 | 4.8 | 4.8 | 0.18 | 0.36 | 0.36 | 99 | 1011.2 |
| 20260509130053 | 8 | 74 | 1.6 | 1.6 | 0.00 | 0.33 | 0.33 | 99 | 1011.3 |
| 20260509125549 | 8 | 207 | 4.8 | 4.8 | 0.13 | 0.33 | 0.33 | 99 | 1011.2 |
| 20260509125046 | 8 | 19 | 0.0 | 0.0 | 0.13 | 0.33 | 0.33 | 99 | 1011.1 |
| 20260509124542 | 8 | 340 | 1.6 | 1.6 | 0.18 | 0.30 | 0.30 | 99 | 1011.1 |
| 20260509124040 | 8 | 229 | 4.8 | 4.8 | 0.18 | 0.30 | 0.30 | 99 | 1011.3 |
| 20260509123537 | 8 | 323 | 3.2 | 3.2 | 0.00 | 0.28 | 0.28 | 99 | 1011.1 |
| 20260509123033 | 8 | 22 | 0.0 | 0.0 | 0.00 | 0.28 | 0.28 | 99 | 1011.1 |
| 20260509122530 | 8 | 319 | 1.6 | 1.6 | 0.00 | 0.28 | 0.28 | 99 | 1011.0 |
| 20260509122027 | 8 | 218 | 3.2 | 3.2 | 0.00 | 0.28 | 0.28 | 99 | 1011.1 |
| 20260509121523 | 8 | 234 | 4.8 | 4.8 | 0.13 | 0.28 | 0.28 | 99 | 1011.3 |
| 20260509121021 | 8 | 248 | 1.6 | 1.6 | 0.13 | 0.28 | 0.28 | 99 | 1011.0 |
| 20260509120520 | 8 | 127 | 3.2 | 4.8 | 0.18 | 0.25 | 0.25 | 99 | 1011.2 |
| 20260509120017 | 8 | 337 | 0.0 | 0.0 | 0.18 | 0.25 | 0.25 | 99 | 1011.1 |
| 20260509115514 | 8 | 228 | 3.2 | 3.2 | 0.00 | 0.23 | 0.23 | 99 | 1011.2 |
| 20260509115012 | 8 | 313 | 0.0 | 1.6 | 0.00 | 0.23 | 0.23 | 99 | 1011.3 |
| 20260509114510 | 8 | 265 | 1.6 | 1.6 | 0.00 | 0.23 | 0.23 | 99 | 1011.3 |
| 20260509114009 | 8 | 28 | 0.0 | 0.0 | 0.00 | 0.23 | 0.23 | 99 | 1011.0 |
| 20260509113506 | 8 | 114 | 0.0 | 0.0 | 0.00 | 0.23 | 0.23 | 99 | 1011.0 |
| 20260509113004 | 8 | 123 | 0.0 | 0.0 | 0.18 | 0.23 | 0.23 | 99 | 1011.1 |
| 20260509112500 | 7 | 171 | 0.0 | 0.0 | 0.18 | 0.23 | 0.23 | 99 | 1011.0 |
| 20260509111956 | 7 | 234 | 3.2 | 3.2 | 0.13 | 0.20 | 0.20 | 99 | 1011.0 |
| 20260509111454 | 7 | 4 | 1.6 | 1.6 | 0.13 | 0.20 | 0.20 | 99 | 1010.8 |
| 20260509110951 | 7 | 213 | 1.6 | 1.6 | 0.00 | 0.18 | 0.18 | 99 | 1011.0 |
| 20260509110447 | 7 | 283 | 0.0 | 0.0 | 0.18 | 0.18 | 0.18 | 99 | 1010.9 |
| 20260509105945 | 7 | 124 | 0.0 | 0.0 | 0.18 | 0.18 | 0.18 | 99 | 1011.1 |
| 20260509105444 | 7 | 214 | 1.6 | 1.6 | 0.00 | 0.15 | 0.15 | 99 | 1011.0 |
| 20260509104940 | 7 | 22 | 0.0 | 0.0 | 0.00 | 0.15 | 0.15 | 98 | 1010.8 |
| 20260509104437 | 7 | 12 | 0.0 | 0.0 | 0.00 | 0.15 | 0.15 | 98 | 1010.9 |
| 20260509103934 | 7 | 7 | 0.0 | 0.0 | 0.00 | 0.15 | 0.15 | 98 | 1010.9 |
| 20260509103432 | 7 | 14 | 0.0 | 1.6 | 0.13 | 0.15 | 0.15 | 98 | 1010.8 |
| 20260509102930 | 7 | 185 | 1.6 | 3.2 | 0.13 | 0.15 | 0.15 | 98 | 1010.8 |
| 20260509102427 | 7 | 309 | 3.2 | 3.2 | 0.13 | 0.15 | 0.15 | 98 | 1010.9 |
| 20260509101923 | 7 | 329 | 3.2 | 3.2 | 0.18 | 0.13 | 0.13 | 97 | 1011.1 |
| 20260509101419 | 7 | 13 | 1.6 | 1.6 | 0.18 | 0.13 | 0.13 | 97 | 1011.2 |
| 20260509100917 | 7 | 304 | 1.6 | 1.6 | 0.13 | 0.10 | 0.10 | 97 | 1011.0 |
| 20260509100414 | 7 | 39 | 1.6 | 1.6 | 0.13 | 0.10 | 0.10 | 97 | 1011.3 |
| 20260509095910 | 7 | 346 | 4.8 | 4.8 | 0.00 | 0.08 | 0.08 | 96 | 1011.4 |
| 20260509095408 | 7 | 331 | 1.6 | 1.6 | 0.00 | 0.08 | 0.08 | 96 | 1011.1 |
| 20260509094905 | 7 | 56 | 1.6 | 1.6 | 0.00 | 0.08 | 0.08 | 96 | 1011.1 |
| 20260509094401 | 7 | 334 | 3.2 | 3.2 | 0.00 | 0.08 | 0.08 | 95 | 1011.2 |
| 20260509093859 | 7 | 321 | 3.2 | 3.2 | 0.00 | 0.08 | 0.08 | 95 | 1011.2 |
| 20260509093356 | 7 | 316 | 4.8 | 4.8 | 0.18 | 0.08 | 0.08 | 94 | 1011.4 |
| 20260509092855 | 8 | 307 | 3.2 | 3.2 | 0.18 | 0.08 | 0.08 | 94 | 1011.5 |
| 20260509092352 | 8 | 231 | 0.0 | 1.6 | 0.13 | 0.05 | 0.05 | 93 | 1011.3 |
| 20260509091850 | 8 | 325 | 3.2 | 3.2 | 0.13 | 0.05 | 0.05 | 91 | 1011.3 |
| 20260509091347 | 8 | 354 | 3.2 | 3.2 | 0.18 | 0.03 | 0.03 | 91 | 1011.6 |
| 20260509090844 | 8 | 311 | 4.8 | 8.0 | 0.18 | 0.03 | 0.03 | 89 | 1011.3 |
| 20260509090341 | 8 | 296 | 6.4 | 9.7 | 0.18 | 0.03 | 0.03 | 87 | 1011.4 |
| 20260509085838 | 9 | 335 | 8.0 | 9.7 | 0.00 | 0.00 | 0.00 | 83 | 1011.3 |
| 20260509085336 | 9 | 345 | 6.4 | 8.0 | 0.00 | 0.00 | 0.00 | 82 | 1011.3 |
| 20260509084832 | 10 | 10 | 0.0 | 1.6 | 0.00 | 0.00 | 0.00 | 79 | 1011.4 |
| 20260509084329 | 10 | 312 | 3.2 | 3.2 | 0.00 | 0.00 | 0.00 | 76 | 1011.1 |
| 20260509083827 | 10 | 22 | 1.6 | 3.2 | 0.00 | 0.00 | 0.00 | 72 | 1011.1 |
| 20260509083323 | 10 | 237 | 6.4 | 8.0 | 0.00 | 0.00 | 0.00 | 71 | 1011.1 |
| 20260509082820 | 10 | 215 | 3.2 | 4.8 | 0.00 | 0.00 | 0.00 | 70 | 1010.9 |
| 20260509082316 | 10 | 39 | 0.0 | 1.6 | 0.00 | 0.00 | 0.00 | 68 | 1011.0 |
| 20260509081814 | 10 | 239 | 4.8 | 8.0 | 0.00 | 0.00 | 0.00 | 67 | 1010.9 |
| 20260509081311 | 10 | 244 | 4.8 | 4.8 | 0.00 | 0.00 | 0.00 | 67 | 1010.8 |
| 20260509080809 | 11 | 353 | 3.2 | 3.2 | 0.00 | 0.00 | 0.00 | 64 | 1010.8 |
| 20260509080306 | 11 | 250 | 3.2 | 4.8 | 0.00 | 0.00 | 0.00 | 63 | 1010.7 |
| 20260509075805 | 11 | 264 | 4.8 | 9.7 | 0.00 | 0.00 | 0.00 | 62 | 1010.4 |
| 20260509075305 | 10 | 223 | 6.4 | 8.0 | 0.00 | 0.00 | 0.00 | 63 | 1010.6 |
| 20260509074758 | 10 | 221 | 6.4 | 8.0 | 0.00 | 0.00 | 0.00 | 62 | 1010.6 |
| 20260509074256 | 10 | 213 | 3.2 | 3.2 | 0.00 | 0.00 | 0.00 | 63 | 1010.3 |
| 20260509073752 | 10 | 214 | 1.6 | 1.6 | 0.00 | 0.00 | 0.00 | 64 | 1010.3 |
| 20260509073249 | 10 | 222 | 1.6 | 3.2 | 0.00 | 0.00 | 0.00 | 64 | 1010.3 |
| 20260509072745 | 10 | 222 | 0.0 | 0.0 | 0.00 | 0.00 | 0.00 | 66 | 1010.2 |
| 20260509072242 | 10 | 186 | 0.0 | 0.0 | 0.00 | 0.00 | 0.00 | 65 | 1010.3 |
| 20260509071739 | 10 | 206 | 1.6 | 3.2 | 0.00 | 0.00 | 0.00 | 65 | 1010.1 |
| 20260509071236 | 10 | 150 | 0.0 | 0.0 | 0.00 | 0.00 | 0.00 | 65 | 1010.2 |
| 20260509070733 | 10 | 162 | 0.0 | 0.0 | 0.00 | 0.00 | 0.00 | 66 | 1010.3 |
| 20260509070229 | 9 | 92 | 0.0 | 0.0 | 0.00 | 0.00 | 0.00 | 68 | 1010.3 |
| 20260509065726 | 10 | 92 | 0.0 | 0.0 | 0.00 | 0.00 | 0.00 | 67 | 1010.1 |
| 20260509065222 | 10 | 91 | 0.0 | 0.0 | 0.00 | 0.00 | 0.00 | 67 | 1010.4 |
| 20260509064718 | 10 | 91 | 0.0 | 0.0 | 0.00 | 0.00 | 0.00 | 68 | 1010.6 |
| 20260509064216 | 10 | 351 | 0.0 | 0.0 | 0.00 | 0.00 | 0.00 | 70 | 1010.2 |
| 20260509063713 | 10 | 150 | 1.6 | 1.6 | 0.00 | 0.00 | 0.00 | 67 | 1010.3 |
| 20260509063209 | 9 | 209 | 1.6 | 1.6 | 0.00 | 0.00 | 0.00 | 67 | 1010.4 |
| 20260509062707 | 9 | 149 | 0.0 | 0.0 | 0.00 | 0.00 | 0.00 | 70 | 1010.4 |
| 20260509062204 | 9 | 65 | 0.0 | 0.0 | 0.00 | 0.00 | 0.00 | 69 | 1010.2 |
| 20260509061701 | 8 | 64 | 0.0 | 0.0 | 0.00 | 0.00 | 0.00 | 71 | 1010.6 |
| 20260509061158 | 8 | 64 | 0.0 | 0.0 | 0.00 | 0.00 | 0.00 | 70 | 1010.6 |
| 20260509060656 | 8 | 64 | 0.0 | 0.0 | 0.00 | 0.00 | 0.00 | 69 | 1010.7 |
| 20260509060152 | 8 | 64 | 0.0 | 0.0 | 0.00 | 0.00 | 0.00 | 71 | 1010.7 |
| 20260509055647 | 9 | 64 | 0.0 | 0.0 | 0.00 | 0.00 | 0.00 | 70 | 1010.8 |
| 20260509055144 | 9 | 64 | 0.0 | 0.0 | 0.00 | 0.00 | 0.00 | 70 | 1010.9 |
| 20260509054640 | 9 | 64 | 0.0 | 0.0 | 0.00 | 0.00 | 0.00 | 70 | 1011.0 |
| 20260509054138 | 9 | 65 | 0.0 | 0.0 | 0.00 | 0.00 | 0.00 | 70 | 1011.0 |
| 20260509053636 | 10 | 33 | 0.0 | 0.0 | 0.00 | 0.00 | 0.00 | 70 | 1011.1 |
| 20260509053133 | 10 | 315 | 4.8 | 4.8 | 0.00 | 0.00 | 0.00 | 69 | 1011.1 |
| 20260509052631 | 9 | 237 | 0.0 | 0.0 | 0.00 | 0.00 | 0.00 | 69 | 1011.4 |
| 20260509052128 | 10 | 237 | 0.0 | 0.0 | 0.00 | 0.00 | 0.00 | 70 | 1011.5 |
| 20260509051626 | 10 | 237 | 0.0 | 0.0 | 0.00 | 0.00 | 0.00 | 68 | 1011.5 |
| 20260509051122 | 10 | 237 | 0.0 | 0.0 | 0.00 | 0.00 | 0.00 | 67 | 1011.6 |
| 20260509050620 | 10 | 237 | 0.0 | 0.0 | 0.00 | 0.00 | 0.00 | 67 | 1011.3 |
| 20260509050116 | 10 | 237 | 0.0 | 0.0 | 0.00 | 0.00 | 0.00 | 66 | 1011.5 |
| 20260509045614 | 10 | 237 | 0.0 | 0.0 | 0.00 | 0.00 | 0.00 | 66 | 1011.4 |
| 20260509045110 | 10 | 237 | 0.0 | 0.0 | 0.00 | 0.00 | 0.00 | 67 | 1011.5 |
| 20260509044608 | 10 | 237 | 0.0 | 0.0 | 0.00 | 0.00 | 0.00 | 67 | 1011.8 |
| 20260509044105 | 10 | 237 | 0.0 | 0.0 | 0.00 | 0.00 | 0.00 | 66 | 1011.9 |
| 20260509043601 | 10 | 237 | 0.0 | 0.0 | 0.00 | 0.00 | 0.00 | 66 | 1011.8 |
| 20260509043057 | 10 | 237 | 0.0 | 0.0 | 0.00 | 0.00 | 0.00 | 66 | 1011.6 |
| 20260509042553 | 10 | 237 | 0.0 | 0.0 | 0.00 | 0.00 | 0.00 | 66 | 1011.8 |
| 20260509042050 | 10 | 237 | 0.0 | 0.0 | 0.00 | 0.00 | 0.00 | 67 | 1011.7 |
| 20260509041547 | 10 | 238 | 0.0 | 0.0 | 0.00 | 0.00 | 0.00 | 66 | 1011.9 |
| 20260509041044 | 10 | 237 | 0.0 | 0.0 | 0.00 | 0.00 | 0.00 | 65 | 1011.6 |
| 20260509040543 | 11 | 237 | 0.0 | 0.0 | 0.00 | 0.00 | 0.00 | 65 | 1011.5 |
| 20260509040039 | 11 | 238 | 0.0 | 0.0 | 0.00 | 0.00 | 0.00 | 64 | 1011.7 |
| 20260509035536 | 11 | 238 | 0.0 | 0.0 | 0.00 | 0.00 | 0.00 | 64 | 1011.6 |
| 20260509035032 | 10 | 238 | 0.0 | 0.0 | 0.00 | 0.00 | 0.00 | 65 | 1011.8 |
| 20260509034531 | 11 | 238 | 0.0 | 0.0 | 0.00 | 0.00 | 0.00 | 66 | 1011.8 |
| 20260509034027 | 11 | 238 | 0.0 | 0.0 | 0.00 | 0.00 | 0.00 | 65 | 1011.8 |
| 20260509033525 | 11 | 238 | 0.0 | 0.0 | 0.00 | 0.00 | 0.00 | 66 | 1012.2 |
| 20260509033021 | 11 | 238 | 0.0 | 0.0 | 0.00 | 0.00 | 0.00 | 65 | 1011.9 |
| 20260509032519 | 11 | 238 | 0.0 | 0.0 | 0.00 | 0.00 | 0.00 | 65 | 1012.1 |
| 20260509032016 | 11 | 239 | 0.0 | 0.0 | 0.00 | 0.00 | 0.00 | 67 | 1012.2 |
| 20260509031513 | 10 | 238 | 0.0 | 0.0 | 0.00 | 0.00 | 0.00 | 65 | 1012.1 |
| 20260509031010 | 11 | 238 | 0.0 | 0.0 | 0.00 | 0.00 | 0.00 | 66 | 1012.1 |
| 20260509030508 | 11 | 238 | 0.0 | 0.0 | 0.00 | 0.00 | 0.00 | 65 | 1011.8 |
| 20260509030005 | 11 | 238 | 0.0 | 0.0 | 0.00 | 0.00 | 0.00 | 65 | 1012.1 |
| 20260509025500 | 11 | 238 | 0.0 | 0.0 | 0.00 | 0.00 | 0.00 | 64 | 1012.1 |
| 20260509024956 | 11 | 238 | 0.0 | 0.0 | 0.00 | 0.00 | 0.00 | 62 | 1012.1 |
| 20260509024452 | 11 | 237 | 0.0 | 0.0 | 0.00 | 0.00 | 0.00 | 61 | 1011.9 |
| 20260509023949 | 11 | 258 | 0.0 | 0.0 | 0.00 | 0.00 | 0.00 | 61 | 1012.2 |
| 20260509023447 | 11 | 258 | 0.0 | 0.0 | 0.00 | 0.00 | 0.00 | 63 | 1012.3 |
| 20260509022943 | 11 | 230 | 0.0 | 0.0 | 0.00 | 0.00 | 0.00 | 61 | 1012.1 |
| 20260509022440 | 11 | 273 | 1.6 | 1.6 | 0.00 | 0.00 | 0.00 | 62 | 1012.1 |
| 20260509021938 | 11 | 224 | 3.2 | 3.2 | 0.00 | 0.00 | 0.00 | 62 | 1012.1 |
| 20260509021434 | 11 | 221 | 0.0 | 0.0 | 0.00 | 0.00 | 0.00 | 64 | 1012.2 |
| 20260509020932 | 11 | 195 | 0.0 | 0.0 | 0.00 | 0.00 | 0.00 | 62 | 1012.1 |
| 20260509020430 | 11 | 177 | 0.0 | 0.0 | 0.00 | 0.00 | 0.00 | 60 | 1012.2 |
| 20260509015926 | 11 | 177 | 0.0 | 0.0 | 0.00 | 0.00 | 0.00 | 61 | 1011.8 |
| 20260509015426 | 11 | 177 | 0.0 | 0.0 | 0.00 | 0.00 | 0.00 | 62 | 1011.9 |
| 20260509014922 | 11 | 177 | 0.0 | 0.0 | 0.00 | 0.00 | 0.00 | 62 | 1012.1 |
| 20260509014418 | 11 | 203 | 0.0 | 0.0 | 0.00 | 0.00 | 0.00 | 62 | 1011.7 |
| 20260509013915 | 11 | 203 | 0.0 | 0.0 | 0.00 | 0.00 | 0.00 | 62 | 1011.7 |
| 20260509013412 | 12 | 203 | 0.0 | 0.0 | 0.00 | 0.00 | 0.00 | 59 | 1011.6 |
| 20260509012907 | 12 | 203 | 0.0 | 1.6 | 0.00 | 0.00 | 0.00 | 60 | 1011.9 |
| 20260509012404 | 12 | 244 | 0.0 | 0.0 | 0.00 | 0.00 | 0.00 | 58 | 1011.7 |
| 20260509011901 | 12 | 244 | 1.6 | 3.2 | 0.00 | 0.00 | 0.00 | 58 | 1011.7 |
| 20260509011359 | 12 | 201 | 0.0 | 1.6 | 0.00 | 0.00 | 0.00 | 58 | 1011.8 |
| 20260509010857 | 12 | 263 | 1.6 | 1.6 | 0.00 | 0.00 | 0.00 | 57 | 1011.8 |
| 20260509010354 | 12 | 29 | 0.0 | 0.0 | 0.00 | 0.00 | 0.00 | 59 | 1011.8 |
| 20260509005851 | 12 | 10 | 1.6 | 1.6 | 0.00 | 0.00 | 0.00 | 57 | 1011.8 |
| 20260509005349 | 12 | 217 | 1.6 | 1.6 | 0.00 | 0.00 | 0.00 | 57 | 1011.7 |
| 20260509004849 | 12 | 94 | 0.0 | 0.0 | 0.00 | 0.00 | 0.00 | 57 | 1011.9 |
| 20260509004345 | 12 | 263 | 0.0 | 0.0 | 0.00 | 0.00 | 0.00 | 56 | 1011.8 |
| 20260509003843 | 12 | 122 | 1.6 | 3.2 | 0.00 | 0.00 | 0.00 | 56 | 1011.5 |
| 20260509003341 | 12 | 214 | 0.0 | 1.6 | 0.00 | 0.00 | 0.00 | 55 | 1011.6 |
| 20260509002837 | 12 | 241 | 3.2 | 3.2 | 0.00 | 0.00 | 0.00 | 56 | 1011.6 |
| 20260509002335 | 13 | 264 | 3.2 | 3.2 | 0.00 | 0.00 | 0.00 | 56 | 1011.6 |
| 20260509001833 | 13 | 259 | 3.2 | 3.2 | 0.00 | 0.00 | 0.00 | 55 | 1011.4 |
| 20260509001328 | 12 | 203 | 8.0 | 9.7 | 0.00 | 0.00 | 0.00 | 56 | 1011.2 |
| 20260509000826 | 13 | 248 | 3.2 | 4.8 | 0.00 | 0.00 | 0.00 | 55 | 1011.8 |
| 20260509000325 | 12 | 267 | 3.2 | 3.2 | 0.00 | 0.00 | 0.00 | 55 | 1011.6 |
| 20260508235820 | 13 | 209 | 1.6 | 1.6 | 0.00 | 0.00 | 0.00 | 55 | 1011.5 |
| 20260508235317 | 13 | 258 | 1.6 | 3.2 | 0.00 | 0.00 | 0.00 | 56 | 1011.5 |
| 20260508234814 | 13 | 47 | 0.0 | 0.0 | 0.00 | 0.00 | 0.00 | 55 | 1011.6 |
| 20260508234310 | 13 | 338 | 3.2 | 4.8 | 0.00 | 0.00 | 0.00 | 55 | 1011.6 |
| 20260508233809 | 13 | 127 | 0.0 | 1.6 | 0.00 | 0.00 | 0.00 | 56 | 1011.5 |
| 20260508233308 | 13 | 273 | 1.6 | 3.2 | 0.00 | 0.00 | 0.00 | 56 | 1011.6 |
| 20260508232805 | 13 | 217 | 1.6 | 1.6 | 0.00 | 0.00 | 0.00 | 56 | 1011.4 |
| 20260508232301 | 13 | 224 | 3.2 | 3.2 | 0.00 | 0.00 | 0.00 | 55 | 1011.3 |
| 20260508231800 | 12 | 224 | 3.2 | 4.8 | 0.00 | 0.00 | 0.00 | 57 | 1011.2 |
| 20260508231255 | 12 | 69 | 1.6 | 1.6 | 0.00 | 0.00 | 0.00 | 57 | 1011.4 |
| 20260508230752 | 12 | 204 | 8.0 | 9.7 | 0.00 | 0.00 | 0.00 | 56 | 1011.2 |
| 20260508230248 | 12 | 221 | 4.8 | 4.8 | 0.00 | 0.00 | 0.00 | 55 | 1011.2 |
| 20260508225746 | 13 | 215 | 9.7 | 14.5 | 0.00 | 0.00 | 0.00 | 55 | 1011.1 |
| 20260508225242 | 13 | 208 | 4.8 | 8.0 | 0.00 | 0.00 | 0.00 | 54 | 1011.4 |
| 20260508224740 | 13 | 330 | 4.8 | 4.8 | 0.00 | 0.00 | 0.00 | 54 | 1011.4 |